owner,sensor,date,latitude,longitude,vertical_datum,wind_speed,wind_to_direction,wind_speed_of_gust,qcFlag 
LUMCON,ioos:station:LUMCON:105:1,2005-11-01T06:00:00Z,29.1874,-90.6654,1.0,2.1,70.0,2.6,'11111222,11111222,11111222' 
LUMCON,ioos:station:LUMCON:105:1,2005-11-01T19:00:00Z,29.1874,-90.6654,1.0,7.7,340.0,9.8,'11111222,11111222,11111222' 
LUMCON,ioos:station:LUMCON:105:1,2005-11-01T20:00:00Z,29.1874,-90.6654,1.0,7.7,340.0,9.3,'11111222,11111222,11111222' 
LUMCON,ioos:station:LUMCON:105:1,2005-11-01T21:00:00Z,29.1874,-90.6654,1.0,7.2,360.0,8.8,'11111222,11144222,11111222' 
LUMCON,ioos:station:LUMCON:105:1,2005-11-01T22:00:00Z,29.1874,-90.6654,1.0,7.7,350.0,9.3,'11111222,11111222,11111222' 
LUMCON,ioos:station:LUMCON:105:1,2005-11-02T04:00:00Z,29.1874,-90.6654,1.0,8.8,10.0,11.3,'11111222,11111222,11111222' 
LUMCON,ioos:station:LUMCON:105:1,2005-11-02T06:00:00Z,29.1874,-90.6654,1.0,7.7,10.0,9.8,'11111222,11111222,11111222' 
LUMCON,ioos:station:LUMCON:105:1,2005-11-02T08:00:00Z,29.1874,-90.6654,1.0,5.7,360.0,6.7,'11111222,11144222,11111222' 
LUMCON,ioos:station:LUMCON:105:1,2005-11-02T10:00:00Z,29.1874,-90.6654,1.0,6.2,20.0,7.2,'11111222,11111222,11111222' 
LUMCON,ioos:station:LUMCON:105:1,2005-11-02T11:00:00Z,29.1874,-90.6654,1.0,6.7,10.0,8.2,'11111222,11111222,11111222' 
LUMCON,ioos:station:LUMCON:105:1,2005-11-02T12:00:00Z,29.1874,-90.6654,1.0,5.7,360.0,6.2,'11111222,11144222,11111222' 
LUMCON,ioos:station:LUMCON:105:1,2005-11-02T16:00:00Z,29.1874,-90.6654,1.0,6.7,40.0,8.2,'11111222,11111222,11111222' 
LUMCON,ioos:station:LUMCON:105:1,2005-11-02T18:00:00Z,29.1874,-90.6654,1.0,6.2,50.0,7.2,'11111222,11111222,11111222' 
LUMCON,ioos:station:LUMCON:105:1,2005-11-02T20:00:00Z,29.1874,-90.6654,1.0,4.6,60.0,6.2,'11111222,11111222,11111222' 
LUMCON,ioos:station:LUMCON:105:1,2005-11-02T22:00:00Z,29.1874,-90.6654,1.0,4.6,80.0,5.1,'11111222,11111222,11111222' 
LUMCON,ioos:station:LUMCON:105:1,2005-11-03T00:00:00Z,29.1874,-90.6654,1.0,2.6,70.0,2.6,'11111222,11111222,11111222' 
LUMCON,ioos:station:LUMCON:105:1,2005-11-03T02:00:00Z,29.1874,-90.6654,1.0,1.0,10.0,1.5,'11111222,11111222,11111222' 
LUMCON,ioos:station:LUMCON:105:1,2005-11-03T04:00:00Z,29.1874,-90.6654,1.0,0.5,340.0,1.0,'11111222,11111222,11111222' 
LUMCON,ioos:station:LUMCON:105:1,2005-11-03T06:00:00Z,29.1874,-90.6654,1.0,1.0,340.0,1.5,'11111222,11111222,11111222' 
LUMCON,ioos:station:LUMCON:105:1,2005-11-03T10:00:00Z,29.1874,-90.6654,1.0,2.1,80.0,2.6,'11111222,11111222,11111222' 
LUMCON,ioos:station:LUMCON:105:1,2005-11-03T12:00:00Z,29.1874,-90.6654,1.0,3.6,50.0,4.1,'11111222,11111222,11111222' 
LUMCON,ioos:station:LUMCON:105:1,2005-11-03T19:00:00Z,29.1874,-90.6654,1.0,4.6,110.0,5.1,'11111222,11111222,11111222' 
LUMCON,ioos:station:LUMCON:105:1,2005-11-03T21:00:00Z,29.1874,-90.6654,1.0,4.6,110.0,5.1,'11111222,11111222,11111222' 
LUMCON,ioos:station:LUMCON:105:1,2005-11-03T23:00:00Z,29.1874,-90.6654,1.0,3.6,120.0,4.6,'11111222,11111222,11111222' 
LUMCON,ioos:station:LUMCON:105:1,2005-11-04T06:00:00Z,29.1874,-90.6654,1.0,2.1,110.0,2.6,'11111222,11111222,11111222' 
LUMCON,ioos:station:LUMCON:105:1,2005-11-04T10:00:00Z,29.1874,-90.6654,1.0,2.6,110.0,3.1,'11111222,11111222,11111222' 
LUMCON,ioos:station:LUMCON:105:1,2005-11-04T12:00:00Z,29.1874,-90.6654,1.0,2.1,100.0,2.6,'11111222,11111222,11111222' 
LUMCON,ioos:station:LUMCON:105:1,2005-11-04T14:00:00Z,29.1874,-90.6654,1.0,1.5,80.0,2.1,'11111222,11111222,11111222' 
LUMCON,ioos:station:LUMCON:105:1,2005-11-04T15:00:00Z,29.1874,-90.6654,1.0,2.1,90.0,2.6,'11111222,11111222,11111222' 
LUMCON,ioos:station:LUMCON:105:1,2005-11-07T21:00:00Z,29.1874,-90.6654,1.0,4.1,100.0,5.1,'11111222,11111222,11111222' 
LUMCON,ioos:station:LUMCON:105:1,2005-11-07T23:00:00Z,29.1874,-90.6654,1.0,4.1,100.0,5.1,'11111222,11111222,11111222' 
LUMCON,ioos:station:LUMCON:105:1,2005-11-08T01:00:00Z,29.1874,-90.6654,1.0,5.1,90.0,5.7,'11111222,11111222,11111222' 
LUMCON,ioos:station:LUMCON:105:1,2005-11-08T05:00:00Z,29.1874,-90.6654,1.0,3.1,120.0,4.1,'11111222,11111222,11111222' 
LUMCON,ioos:station:LUMCON:105:1,2005-11-08T07:00:00Z,29.1874,-90.6654,1.0,2.6,120.0,3.1,'11111222,11111222,11111222' 
LUMCON,ioos:station:LUMCON:105:1,2005-11-08T09:00:00Z,29.1874,-90.6654,1.0,2.1,100.0,2.1,'11111222,11111222,11111222' 
LUMCON,ioos:station:LUMCON:105:1,2005-11-08T13:00:00Z,29.1874,-90.6654,1.0,4.1,80.0,4.6,'11111222,11111222,11111222' 
LUMCON,ioos:station:LUMCON:105:1,2005-11-08T17:00:00Z,29.1874,-90.6654,1.0,3.6,80.0,5.1,'11111222,11111222,11111222' 
LUMCON,ioos:station:LUMCON:105:1,2005-11-08T21:00:00Z,29.1874,-90.6654,1.0,3.1,130.0,3.6,'11111222,11111222,11111222' 
LUMCON,ioos:station:LUMCON:105:1,2005-11-09T07:00:00Z,29.1874,-90.6654,1.0,2.6,120.0,3.6,'11111222,11111222,11111222' 
LUMCON,ioos:station:LUMCON:105:1,2005-11-10T10:00:00Z,29.1874,-90.6654,1.0,1.5,260.0,2.1,'11111222,11111222,11111222' 
LUMCON,ioos:station:LUMCON:105:1,2005-11-11T07:00:00Z,29.1874,-90.6654,1.0,5.1,60.0,6.2,'11111222,11111222,11111222' 
LUMCON,ioos:station:LUMCON:105:1,2005-11-11T09:00:00Z,29.1874,-90.6654,1.0,6.2,80.0,7.2,'11111222,11111222,11111222' 
LUMCON,ioos:station:LUMCON:105:1,2005-11-11T12:00:00Z,29.1874,-90.6654,1.0,5.7,80.0,7.2,'11111222,11111222,11111222' 
LUMCON,ioos:station:LUMCON:105:1,2005-11-11T15:00:00Z,29.1874,-90.6654,1.0,5.1,80.0,6.7,'11111222,11111222,11111222' 
LUMCON,ioos:station:LUMCON:105:1,2005-11-11T16:00:00Z,29.1874,-90.6654,1.0,5.1,70.0,6.2,'11111222,11111222,11111222' 
LUMCON,ioos:station:LUMCON:105:1,2005-11-11T18:00:00Z,29.1874,-90.6654,1.0,4.6,110.0,5.7,'11111222,11111222,11111222' 
LUMCON,ioos:station:LUMCON:105:1,2005-11-11T20:00:00Z,29.1874,-90.6654,1.0,4.6,100.0,5.7,'11111222,11111222,11111222' 
LUMCON,ioos:station:LUMCON:105:1,2005-11-12T01:00:00Z,29.1874,-90.6654,1.0,5.7,110.0,6.7,'11111222,11111222,11111222' 
LUMCON,ioos:station:LUMCON:105:1,2005-11-12T02:00:00Z,29.1874,-90.6654,1.0,6.2,110.0,7.2,'11111222,11111222,11111222' 
LUMCON,ioos:station:LUMCON:105:1,2005-11-12T04:00:00Z,29.1874,-90.6654,1.0,5.7,120.0,6.7,'11111222,11111222,11111222' 
LUMCON,ioos:station:LUMCON:105:1,2005-11-12T06:00:00Z,29.1874,-90.6654,1.0,5.1,120.0,6.7,'11111222,11111222,11111222' 
LUMCON,ioos:station:LUMCON:105:1,2005-11-12T07:00:00Z,29.1874,-90.6654,1.0,5.7,130.0,6.7,'11111222,11111222,11111222' 
LUMCON,ioos:station:LUMCON:105:1,2005-11-12T09:00:00Z,29.1874,-90.6654,1.0,5.7,130.0,7.2,'11111222,11111222,11111222' 
LUMCON,ioos:station:LUMCON:105:1,2005-11-12T13:00:00Z,29.1874,-90.6654,1.0,5.1,150.0,6.2,'11111222,11111222,11111222' 
LUMCON,ioos:station:LUMCON:105:1,2005-11-12T14:00:00Z,29.1874,-90.6654,1.0,5.1,140.0,6.2,'11111222,11111222,11111222' 
LUMCON,ioos:station:LUMCON:105:1,2005-11-12T16:00:00Z,29.1874,-90.6654,1.0,4.1,140.0,5.1,'11111222,11111222,11111222' 
LUMCON,ioos:station:LUMCON:105:1,2005-11-12T17:00:00Z,29.1874,-90.6654,1.0,5.1,120.0,6.2,'11111222,11111222,11111222' 
LUMCON,ioos:station:LUMCON:105:1,2005-11-12T18:00:00Z,29.1874,-90.6654,1.0,5.1,130.0,5.7,'11111222,11111222,11111222' 
LUMCON,ioos:station:LUMCON:105:1,2005-11-12T19:00:00Z,29.1874,-90.6654,1.0,4.6,140.0,5.7,'11111222,11111222,11111222' 
LUMCON,ioos:station:LUMCON:105:1,2005-11-12T20:00:00Z,29.1874,-90.6654,1.0,4.1,160.0,5.1,'11111222,11111222,11111222' 
LUMCON,ioos:station:LUMCON:105:1,2005-11-12T21:00:00Z,29.1874,-90.6654,1.0,3.6,150.0,4.1,'11111222,11111222,11111222' 
LUMCON,ioos:station:LUMCON:105:1,2005-11-13T00:00:00Z,29.1874,-90.6654,1.0,4.6,130.0,5.1,'11111222,11111222,11111222' 
LUMCON,ioos:station:LUMCON:105:1,2005-11-13T01:00:00Z,29.1874,-90.6654,1.0,4.1,140.0,5.1,'11111222,11111222,11111222' 
LUMCON,ioos:station:LUMCON:105:1,2005-11-13T02:00:00Z,29.1874,-90.6654,1.0,3.1,130.0,3.6,'11111222,11111222,11111222' 
LUMCON,ioos:station:LUMCON:105:1,2005-11-16T15:00:00Z,29.1874,-90.6654,1.0,10.8,20.0,12.9,'11111222,11111222,11111222' 
LUMCON,ioos:station:LUMCON:105:1,2005-11-16T17:00:00Z,29.1874,-90.6654,1.0,10.8,10.0,13.9,'11111222,11111222,11111222' 
LUMCON,ioos:station:LUMCON:105:1,2005-11-16T19:00:00Z,29.1874,-90.6654,1.0,8.8,20.0,12.4,'11111222,11111222,11111222' 
LUMCON,ioos:station:LUMCON:105:1,2005-11-16T20:00:00Z,29.1874,-90.6654,1.0,8.2,10.0,9.8,'11111222,11111222,11111222' 
LUMCON,ioos:station:LUMCON:105:1,2005-11-16T21:00:00Z,29.1874,-90.6654,1.0,8.2,10.0,9.8,'11111222,11111222,11111222' 
LUMCON,ioos:station:LUMCON:105:1,2005-11-16T22:00:00Z,29.1874,-90.6654,1.0,8.2,30.0,9.8,'11111222,11111222,11111222' 
LUMCON,ioos:station:LUMCON:105:1,2005-11-16T23:00:00Z,29.1874,-90.6654,1.0,8.2,20.0,9.8,'11111222,11111222,11111222' 
LUMCON,ioos:station:LUMCON:105:1,2005-11-17T00:00:00Z,29.1874,-90.6654,1.0,8.8,350.0,9.8,'11111222,11111222,11111222' 
LUMCON,ioos:station:LUMCON:105:1,2005-11-17T01:00:00Z,29.1874,-90.6654,1.0,9.8,0.0,9.8,'11111222,11111222,11111222' 
LUMCON,ioos:station:LUMCON:105:1,2005-11-17T02:00:00Z,29.1874,-90.6654,1.0,10.3,350.0,99.0,'11111222,11111222,11144222' 
LUMCON,ioos:station:LUMCON:105:1,2005-11-17T03:00:00Z,29.1874,-90.6654,1.0,9.8,10.0,9.8,'11111222,11111222,11111222' 
LUMCON,ioos:station:LUMCON:105:1,2005-11-17T04:00:00Z,29.1874,-90.6654,1.0,10.3,350.0,99.0,'11111222,11111222,11144222' 
LUMCON,ioos:station:LUMCON:105:1,2005-11-17T05:00:00Z,29.1874,-90.6654,1.0,9.8,10.0,9.8,'11111222,11111222,11111222' 
LUMCON,ioos:station:LUMCON:105:1,2005-11-17T06:00:00Z,29.1874,-90.6654,1.0,9.8,20.0,9.8,'11111222,11111222,11111222' 
LUMCON,ioos:station:LUMCON:105:1,2005-11-17T07:00:00Z,29.1874,-90.6654,1.0,10.3,20.0,99.0,'11111222,11111222,11144222' 
LUMCON,ioos:station:LUMCON:105:1,2005-11-17T08:00:00Z,29.1874,-90.6654,1.0,9.8,20.0,9.8,'11111222,11111222,11111222' 
LUMCON,ioos:station:LUMCON:105:1,2005-11-17T09:00:00Z,29.1874,-90.6654,1.0,8.8,20.0,9.8,'11111222,11111222,11111222' 
LUMCON,ioos:station:LUMCON:105:1,2005-11-17T10:00:00Z,29.1874,-90.6654,1.0,7.7,20.0,9.8,'11111222,11111222,11111222' 
LUMCON,ioos:station:LUMCON:105:1,2005-11-17T11:00:00Z,29.1874,-90.6654,1.0,7.2,20.0,9.8,'11111222,11111222,11111222' 
LUMCON,ioos:station:LUMCON:105:1,2005-11-17T12:00:00Z,29.1874,-90.6654,1.0,7.2,20.0,9.8,'11111222,11111222,11111222' 
LUMCON,ioos:station:LUMCON:105:1,2005-11-17T13:00:00Z,29.1874,-90.6654,1.0,6.7,20.0,9.8,'11111222,11111222,11111222' 
LUMCON,ioos:station:LUMCON:105:1,2005-11-17T14:00:00Z,29.1874,-90.6654,1.0,9.3,40.0,9.8,'11111222,11111222,11111222' 
LUMCON,ioos:station:LUMCON:105:1,2005-11-17T15:00:00Z,29.1874,-90.6654,1.0,9.8,30.0,13.9,'11111222,11111222,11111222' 
LUMCON,ioos:station:LUMCON:105:1,2005-11-17T16:00:00Z,29.1874,-90.6654,1.0,9.3,40.0,9.8,'11111222,11111222,11111222' 
LUMCON,ioos:station:LUMCON:105:1,2005-11-17T17:00:00Z,29.1874,-90.6654,1.0,8.8,50.0,9.8,'11111222,11111222,11111222' 
LUMCON,ioos:station:LUMCON:105:1,2005-11-17T18:00:00Z,29.1874,-90.6654,1.0,7.7,40.0,9.8,'11111222,11111222,11111222' 
LUMCON,ioos:station:LUMCON:105:1,2005-11-17T19:00:00Z,29.1874,-90.6654,1.0,7.7,40.0,9.8,'11111222,11111222,11111222' 
LUMCON,ioos:station:LUMCON:105:1,2005-11-17T20:00:00Z,29.1874,-90.6654,1.0,6.7,30.0,9.8,'11111222,11111222,11111222' 
LUMCON,ioos:station:LUMCON:105:1,2005-11-17T21:00:00Z,29.1874,-90.6654,1.0,6.7,30.0,8.8,'11111222,11111222,11111222' 
LUMCON,ioos:station:LUMCON:105:1,2005-11-17T22:00:00Z,29.1874,-90.6654,1.0,6.7,30.0,9.8,'11111222,11111222,11111222' 
LUMCON,ioos:station:LUMCON:105:1,2005-11-17T23:00:00Z,29.1874,-90.6654,1.0,6.2,30.0,8.8,'11111222,11111222,11111222' 
LUMCON,ioos:station:LUMCON:105:1,2005-11-18T00:00:00Z,29.1874,-90.6654,1.0,4.6,20.0,7.7,'11111222,11111222,11111222' 
LUMCON,ioos:station:LUMCON:105:1,2005-11-18T01:00:00Z,29.1874,-90.6654,1.0,4.6,20.0,6.7,'11111222,11111222,11111222' 
LUMCON,ioos:station:LUMCON:105:1,2005-11-18T02:00:00Z,29.1874,-90.6654,1.0,5.7,20.0,7.7,'11111222,11111222,11111222' 
LUMCON,ioos:station:LUMCON:105:1,2005-11-18T03:00:00Z,29.1874,-90.6654,1.0,5.7,20.0,8.2,'11111222,11111222,11111222' 
LUMCON,ioos:station:LUMCON:105:1,2005-11-18T05:00:00Z,29.1874,-90.6654,1.0,4.6,20.0,6.2,'11111222,11111222,11111222' 
LUMCON,ioos:station:LUMCON:105:1,2005-11-18T06:00:00Z,29.1874,-90.6654,1.0,5.1,40.0,9.8,'11111222,11111222,11111222' 
LUMCON,ioos:station:LUMCON:105:1,2005-11-18T07:00:00Z,29.1874,-90.6654,1.0,6.7,40.0,9.8,'11111222,11111222,11111222' 
LUMCON,ioos:station:LUMCON:105:1,2005-11-18T08:00:00Z,29.1874,-90.6654,1.0,6.7,40.0,9.8,'11111222,11111222,11111222' 
LUMCON,ioos:station:LUMCON:105:1,2005-11-18T09:00:00Z,29.1874,-90.6654,1.0,7.2,40.0,9.8,'11111222,11111222,11111222' 
LUMCON,ioos:station:LUMCON:105:1,2005-11-18T10:00:00Z,29.1874,-90.6654,1.0,7.2,40.0,9.8,'11111222,11111222,11111222' 
LUMCON,ioos:station:LUMCON:105:1,2005-11-18T11:00:00Z,29.1874,-90.6654,1.0,7.7,30.0,9.8,'11111222,11111222,11111222' 
LUMCON,ioos:station:LUMCON:105:1,2005-11-18T12:00:00Z,29.1874,-90.6654,1.0,7.2,30.0,9.8,'11111222,11111222,11111222' 
LUMCON,ioos:station:LUMCON:105:1,2005-11-18T13:00:00Z,29.1874,-90.6654,1.0,6.7,30.0,9.8,'11111222,11111222,11111222' 
LUMCON,ioos:station:LUMCON:105:1,2005-11-18T14:00:00Z,29.1874,-90.6654,1.0,6.7,40.0,9.3,'11111222,11111222,11111222' 
LUMCON,ioos:station:LUMCON:105:1,2005-11-18T15:00:00Z,29.1874,-90.6654,1.0,6.7,30.0,7.7,'11111222,11111222,11111222' 
LUMCON,ioos:station:LUMCON:105:1,2005-11-18T16:00:00Z,29.1874,-90.6654,1.0,6.2,40.0,8.2,'11111222,11111222,11111222' 
LUMCON,ioos:station:LUMCON:105:1,2005-11-18T17:00:00Z,29.1874,-90.6654,1.0,6.7,40.0,9.3,'11111222,11111222,11111222' 
LUMCON,ioos:station:LUMCON:105:1,2005-11-18T18:00:00Z,29.1874,-90.6654,1.0,5.7,30.0,7.7,'11111222,11111222,11111222' 
LUMCON,ioos:station:LUMCON:105:1,2005-11-18T19:00:00Z,29.1874,-90.6654,1.0,6.2,30.0,8.8,'11111222,11111222,11111222' 
LUMCON,ioos:station:LUMCON:105:1,2005-11-18T20:00:00Z,29.1874,-90.6654,1.0,6.7,30.0,8.2,'11111222,11111222,11111222' 
LUMCON,ioos:station:LUMCON:105:1,2005-11-18T21:00:00Z,29.1874,-90.6654,1.0,6.7,50.0,8.8,'11111222,11111222,11111222' 
LUMCON,ioos:station:LUMCON:105:1,2005-11-18T22:00:00Z,29.1874,-90.6654,1.0,6.7,40.0,8.8,'11111222,11111222,11111222' 
LUMCON,ioos:station:LUMCON:105:1,2005-11-18T23:00:00Z,29.1874,-90.6654,1.0,5.7,40.0,7.7,'11111222,11111222,11111222' 
LUMCON,ioos:station:LUMCON:105:1,2005-11-19T00:00:00Z,29.1874,-90.6654,1.0,4.6,50.0,7.2,'11111222,11111222,11111222' 
LUMCON,ioos:station:LUMCON:105:1,2005-11-19T01:00:00Z,29.1874,-90.6654,1.0,3.1,40.0,4.6,'11111222,11111222,11111222' 
LUMCON,ioos:station:LUMCON:105:1,2005-11-19T02:00:00Z,29.1874,-90.6654,1.0,2.6,20.0,3.1,'11111222,11111222,11111222' 
LUMCON,ioos:station:LUMCON:105:1,2005-11-19T03:00:00Z,29.1874,-90.6654,1.0,2.6,30.0,3.1,'11111222,11111222,11111222' 
LUMCON,ioos:station:LUMCON:105:1,2005-11-19T04:00:00Z,29.1874,-90.6654,1.0,2.1,20.0,2.6,'11111222,11111222,11111222' 
LUMCON,ioos:station:LUMCON:105:1,2005-11-19T05:00:00Z,29.1874,-90.6654,1.0,2.1,20.0,2.6,'11111222,11111222,11111222' 
LUMCON,ioos:station:LUMCON:105:1,2005-11-19T06:00:00Z,29.1874,-90.6654,1.0,3.1,20.0,3.6,'11111222,11111222,11111222' 
LUMCON,ioos:station:LUMCON:105:1,2005-11-19T07:00:00Z,29.1874,-90.6654,1.0,3.6,40.0,4.6,'11111222,11111222,11111222' 
LUMCON,ioos:station:LUMCON:105:1,2005-11-19T08:00:00Z,29.1874,-90.6654,1.0,3.6,30.0,6.2,'11111222,11111222,11111222' 
LUMCON,ioos:station:LUMCON:105:1,2005-11-19T09:00:00Z,29.1874,-90.6654,1.0,4.1,30.0,6.2,'11111222,11111222,11111222' 
LUMCON,ioos:station:LUMCON:105:1,2005-11-19T10:00:00Z,29.1874,-90.6654,1.0,4.1,40.0,6.2,'11111222,11111222,11111222' 
LUMCON,ioos:station:LUMCON:105:1,2005-11-19T11:00:00Z,29.1874,-90.6654,1.0,4.1,30.0,6.2,'11111222,11111222,11111222' 
LUMCON,ioos:station:LUMCON:105:1,2005-11-19T12:00:00Z,29.1874,-90.6654,1.0,3.6,30.0,5.1,'11111222,11111222,11111222' 
LUMCON,ioos:station:LUMCON:105:1,2005-11-19T13:00:00Z,29.1874,-90.6654,1.0,4.1,30.0,6.7,'11111222,11111222,11111222' 
LUMCON,ioos:station:LUMCON:105:1,2005-11-19T14:00:00Z,29.1874,-90.6654,1.0,5.7,50.0,7.2,'11111222,11111222,11111222' 
LUMCON,ioos:station:LUMCON:105:1,2005-11-19T15:00:00Z,29.1874,-90.6654,1.0,5.7,50.0,7.7,'11111222,11111222,11111222' 
LUMCON,ioos:station:LUMCON:105:1,2005-11-19T16:00:00Z,29.1874,-90.6654,1.0,5.7,60.0,7.7,'11111222,11111222,11111222' 
LUMCON,ioos:station:LUMCON:105:1,2005-11-19T17:00:00Z,29.1874,-90.6654,1.0,4.6,60.0,6.7,'11111222,11111222,11111222' 
LUMCON,ioos:station:LUMCON:105:1,2005-11-19T18:00:00Z,29.1874,-90.6654,1.0,4.1,60.0,5.7,'11111222,11111222,11111222' 
LUMCON,ioos:station:LUMCON:105:1,2005-11-19T19:00:00Z,29.1874,-90.6654,1.0,4.6,80.0,6.7,'11111222,11111222,11111222' 
LUMCON,ioos:station:LUMCON:105:1,2005-11-19T20:00:00Z,29.1874,-90.6654,1.0,3.6,70.0,5.1,'11111222,11111222,11111222' 
LUMCON,ioos:station:LUMCON:105:1,2005-11-19T21:00:00Z,29.1874,-90.6654,1.0,3.6,80.0,5.1,'11111222,11111222,11111222' 
LUMCON,ioos:station:LUMCON:105:1,2005-11-19T22:00:00Z,29.1874,-90.6654,1.0,3.1,100.0,3.6,'11111222,11111222,11111222' 
LUMCON,ioos:station:LUMCON:105:1,2005-11-19T23:00:00Z,29.1874,-90.6654,1.0,3.1,100.0,4.1,'11111222,11111222,11111222' 
LUMCON,ioos:station:LUMCON:105:1,2005-11-20T00:00:00Z,29.1874,-90.6654,1.0,2.6,90.0,4.1,'11111222,11111222,11111222' 
LUMCON,ioos:station:LUMCON:105:1,2005-11-20T01:00:00Z,29.1874,-90.6654,1.0,3.1,80.0,4.6,'11111222,11111222,11111222' 
LUMCON,ioos:station:LUMCON:105:1,2005-11-20T02:00:00Z,29.1874,-90.6654,1.0,3.1,60.0,4.1,'11111222,11111222,11111222' 
LUMCON,ioos:station:LUMCON:105:1,2005-11-20T03:00:00Z,29.1874,-90.6654,1.0,3.6,40.0,4.6,'11111222,11111222,11111222' 
LUMCON,ioos:station:LUMCON:105:1,2005-11-20T04:00:00Z,29.1874,-90.6654,1.0,3.6,40.0,5.1,'11111222,11111222,11111222' 
LUMCON,ioos:station:LUMCON:105:1,2005-11-20T05:00:00Z,29.1874,-90.6654,1.0,3.1,30.0,4.6,'11111222,11111222,11111222' 
LUMCON,ioos:station:LUMCON:105:1,2005-11-20T06:00:00Z,29.1874,-90.6654,1.0,3.1,30.0,4.1,'11111222,11111222,11111222' 
LUMCON,ioos:station:LUMCON:105:1,2005-11-20T07:00:00Z,29.1874,-90.6654,1.0,3.6,40.0,5.7,'11111222,11111222,11111222' 
LUMCON,ioos:station:LUMCON:105:1,2005-11-20T08:00:00Z,29.1874,-90.6654,1.0,3.6,30.0,5.7,'11111222,11111222,11111222' 
LUMCON,ioos:station:LUMCON:105:1,2005-11-20T09:00:00Z,29.1874,-90.6654,1.0,4.1,40.0,5.7,'11111222,11111222,11111222' 
LUMCON,ioos:station:LUMCON:105:1,2005-11-20T10:00:00Z,29.1874,-90.6654,1.0,4.1,50.0,5.1,'11111222,11111222,11111222' 
LUMCON,ioos:station:LUMCON:105:1,2005-11-20T11:00:00Z,29.1874,-90.6654,1.0,4.1,60.0,6.7,'11111222,11111222,11111222' 
LUMCON,ioos:station:LUMCON:105:1,2005-11-20T12:00:00Z,29.1874,-90.6654,1.0,3.6,60.0,5.1,'11111222,11111222,11111222' 
LUMCON,ioos:station:LUMCON:105:1,2005-11-20T13:00:00Z,29.1874,-90.6654,1.0,3.6,40.0,5.1,'11111222,11111222,11111222' 
LUMCON,ioos:station:LUMCON:105:1,2005-11-20T14:00:00Z,29.1874,-90.6654,1.0,4.1,50.0,5.1,'11111222,11111222,11111222' 
LUMCON,ioos:station:LUMCON:105:1,2005-11-20T15:00:00Z,29.1874,-90.6654,1.0,3.6,30.0,4.6,'11111222,11111222,11111222' 
LUMCON,ioos:station:LUMCON:105:1,2005-11-20T16:00:00Z,29.1874,-90.6654,1.0,4.6,30.0,5.7,'11111222,11111222,11111222' 
LUMCON,ioos:station:LUMCON:105:1,2005-11-20T17:00:00Z,29.1874,-90.6654,1.0,5.1,20.0,6.2,'11111222,11111222,11111222' 
LUMCON,ioos:station:LUMCON:105:1,2005-11-20T18:00:00Z,29.1874,-90.6654,1.0,5.1,40.0,7.7,'11111222,11111222,11111222' 
LUMCON,ioos:station:LUMCON:105:1,2005-11-20T19:00:00Z,29.1874,-90.6654,1.0,3.6,60.0,5.1,'11111222,11111222,11111222' 
LUMCON,ioos:station:LUMCON:105:1,2005-11-20T20:00:00Z,29.1874,-90.6654,1.0,4.1,60.0,5.7,'11111222,11111222,11111222' 
LUMCON,ioos:station:LUMCON:105:1,2005-11-20T21:00:00Z,29.1874,-90.6654,1.0,4.6,50.0,7.2,'11111222,11111222,11111222' 
LUMCON,ioos:station:LUMCON:105:1,2005-11-20T22:00:00Z,29.1874,-90.6654,1.0,4.1,40.0,5.7,'11111222,11111222,11111222' 
LUMCON,ioos:station:LUMCON:105:1,2005-11-20T23:00:00Z,29.1874,-90.6654,1.0,3.6,30.0,4.6,'11111222,11111222,11111222' 
LUMCON,ioos:station:LUMCON:105:1,2005-11-21T00:00:00Z,29.1874,-90.6654,1.0,2.6,350.0,3.6,'11111222,11111222,11111222' 
LUMCON,ioos:station:LUMCON:105:1,2005-11-21T01:00:00Z,29.1874,-90.6654,1.0,2.6,340.0,3.1,'11111222,11111222,11111222' 
LUMCON,ioos:station:LUMCON:105:1,2005-11-21T02:00:00Z,29.1874,-90.6654,1.0,3.1,330.0,4.6,'11111222,11111222,11111222' 
LUMCON,ioos:station:LUMCON:105:1,2005-11-21T03:00:00Z,29.1874,-90.6654,1.0,6.2,330.0,8.2,'11111222,11111222,11111222' 
LUMCON,ioos:station:LUMCON:105:1,2005-11-21T04:00:00Z,29.1874,-90.6654,1.0,9.3,320.0,9.8,'11111222,11111222,11111222' 
LUMCON,ioos:station:LUMCON:105:1,2005-11-21T05:00:00Z,29.1874,-90.6654,1.0,4.6,320.0,7.7,'11111222,11111222,11111222' 
LUMCON,ioos:station:LUMCON:105:1,2005-11-21T06:00:00Z,29.1874,-90.6654,1.0,3.1,310.0,4.6,'11111222,11111222,11111222' 
LUMCON,ioos:station:LUMCON:105:1,2005-11-21T07:00:00Z,29.1874,-90.6654,1.0,4.6,330.0,6.2,'11111222,11111222,11111222' 
LUMCON,ioos:station:LUMCON:105:1,2005-11-21T08:00:00Z,29.1874,-90.6654,1.0,4.1,330.0,5.1,'11111222,11111222,11111222' 
LUMCON,ioos:station:LUMCON:105:1,2005-11-21T09:00:00Z,29.1874,-90.6654,1.0,3.1,300.0,5.7,'11111222,11111222,11111222' 
LUMCON,ioos:station:LUMCON:105:1,2005-11-21T10:00:00Z,29.1874,-90.6654,1.0,5.1,300.0,7.2,'11111222,11111222,11111222' 
LUMCON,ioos:station:LUMCON:105:1,2005-11-21T11:00:00Z,29.1874,-90.6654,1.0,4.6,300.0,7.2,'11111222,11111222,11111222' 
LUMCON,ioos:station:LUMCON:105:1,2005-11-21T12:00:00Z,29.1874,-90.6654,1.0,4.1,300.0,6.7,'11111222,11111222,11111222' 
LUMCON,ioos:station:LUMCON:105:1,2005-11-21T13:00:00Z,29.1874,-90.6654,1.0,5.7,300.0,7.7,'11111222,11111222,11111222' 
LUMCON,ioos:station:LUMCON:105:1,2005-11-21T14:00:00Z,29.1874,-90.6654,1.0,4.6,300.0,7.2,'11111222,11111222,11111222' 
LUMCON,ioos:station:LUMCON:105:1,2005-11-21T15:00:00Z,29.1874,-90.6654,1.0,7.7,310.0,9.8,'11111222,11111222,11111222' 
LUMCON,ioos:station:LUMCON:105:1,2005-11-21T16:00:00Z,29.1874,-90.6654,1.0,8.8,310.0,9.8,'11111222,11111222,11111222' 
LUMCON,ioos:station:LUMCON:105:1,2005-11-21T18:00:00Z,29.1874,-90.6654,1.0,8.8,330.0,9.3,'11111222,11111222,11111222' 
LUMCON,ioos:station:LUMCON:105:1,2005-11-21T19:00:00Z,29.1874,-90.6654,1.0,7.7,320.0,9.3,'11111222,11111222,11111222' 
LUMCON,ioos:station:LUMCON:105:1,2005-11-21T20:00:00Z,29.1874,-90.6654,1.0,8.2,330.0,9.8,'11111222,11111222,11111222' 
LUMCON,ioos:station:LUMCON:105:1,2005-11-21T21:00:00Z,29.1874,-90.6654,1.0,7.2,320.0,9.3,'11111222,11111222,11111222' 
LUMCON,ioos:station:LUMCON:105:1,2005-11-21T22:00:00Z,29.1874,-90.6654,1.0,6.2,340.0,8.2,'11111222,11111222,11111222' 
LUMCON,ioos:station:LUMCON:105:1,2005-11-22T16:00:00Z,29.1874,-90.6654,1.0,4.1,320.0,5.7,'11111222,11111222,11111222' 
LUMCON,ioos:station:LUMCON:105:1,2005-11-22T17:00:00Z,29.1874,-90.6654,1.0,1.5,140.0,5.1,'11111222,11111222,11111222' 
LUMCON,ioos:station:LUMCON:105:1,2005-11-22T20:00:00Z,29.1874,-90.6654,1.0,5.1,260.0,7.7,'11111222,11111222,11111222' 
LUMCON,ioos:station:LUMCON:105:1,2005-11-22T21:00:00Z,29.1874,-90.6654,1.0,5.1,270.0,7.7,'11111222,11111222,11111222' 
LUMCON,ioos:station:LUMCON:105:1,2005-11-22T22:00:00Z,29.1874,-90.6654,1.0,5.1,280.0,7.2,'11111222,11111222,11111222' 
LUMCON,ioos:station:LUMCON:105:1,2005-11-22T23:00:00Z,29.1874,-90.6654,1.0,4.6,280.0,6.2,'11111222,11111222,11111222' 
LUMCON,ioos:station:LUMCON:105:1,2005-11-23T00:00:00Z,29.1874,-90.6654,1.0,3.6,280.0,5.1,'11111222,11111222,11111222' 
LUMCON,ioos:station:LUMCON:105:1,2005-11-23T01:00:00Z,29.1874,-90.6654,1.0,3.1,290.0,5.1,'11111222,11111222,11111222' 
LUMCON,ioos:station:LUMCON:105:1,2005-11-23T02:00:00Z,29.1874,-90.6654,1.0,3.1,280.0,5.1,'11111222,11111222,11111222' 
LUMCON,ioos:station:LUMCON:105:1,2005-11-23T03:00:00Z,29.1874,-90.6654,1.0,4.6,300.0,5.7,'11111222,11111222,11111222' 
LUMCON,ioos:station:LUMCON:105:1,2005-11-23T04:00:00Z,29.1874,-90.6654,1.0,3.1,320.0,5.1,'11111222,11111222,11111222' 
LUMCON,ioos:station:LUMCON:105:1,2005-11-23T05:00:00Z,29.1874,-90.6654,1.0,2.1,300.0,3.1,'11111222,11111222,11111222' 
LUMCON,ioos:station:LUMCON:105:1,2005-11-23T06:00:00Z,29.1874,-90.6654,1.0,2.1,320.0,3.1,'11111222,11111222,11111222' 